TimeCST,TemperatureF,Dew PointF,Humidity,Sea Level PressureIn,VisibilityMPH,Wind Direction,Wind SpeedMPH,Gust SpeedMPH,PrecipitationIn,Events,Conditions,WindDirDegrees,DateUTC
12:53 AM,26.1,19.0,75,29.90,10.0,WNW,5.8,-,N/A,,Clear,290,2013-02-05 06:53:00
1:53 AM,27.0,21.0,78,29.89,10.0,WNW,6.9,-,N/A,,Clear,300,2013-02-05 07:53:00
2:53 AM,23.0,19.0,85,29.93,10.0,NW,5.8,-,N/A,,Clear,320,2013-02-05 08:53:00
3:53 AM,21.9,18.0,85,29.92,10.0,NW,8.1,-,N/A,,Clear,310,2013-02-05 09:53:00
4:53 AM,21.0,17.1,85,29.94,10.0,WNW,6.9,-,N/A,,Clear,300,2013-02-05 10:53:00
5:53 AM,21.2,17.6,86,29.92,10.0,NW,5.8,-,N/A,,Clear,320,2013-02-05 11:53:00
6:53 AM,21.9,18.0,85,30.01,10.0,WNW,8.1,-,N/A,,Clear,300,2013-02-05 12:53:00
7:53 AM,21.0,17.1,85,30.05,10.0,NW,6.9,-,N/A,,Clear,310,2013-02-05 13:53:00
8:53 AM,27.0,21.9,81,30.07,10.0,NW,5.8,-,N/A,,Clear,310,2013-02-05 14:53:00
9:53 AM,36.0,24.1,62,30.08,10.0,WNW,8.1,-,N/A,,Clear,290,2013-02-05 15:53:00
10:53 AM,43.0,27.0,53,30.09,10.0,West,4.6,-,N/A,,Clear,270,2013-02-05 16:53:00
11:53 AM,51.1,25.0,36,30.09,10.0,NNW,10.4,-,N/A,,Clear,340,2013-02-05 17:53:00
12:53 PM,53.1,23.0,31,30.06,10.0,NW,6.9,-,N/A,,Clear,320,2013-02-05 18:53:00
1:53 PM,54.0,21.9,29,30.02,10.0,West,6.9,-,N/A,,Clear,270,2013-02-05 19:53:00
2:53 PM,54.0,21.9,29,30.01,10.0,SW,3.5,-,N/A,,Clear,230,2013-02-05 20:53:00
3:53 PM,54.0,21.9,29,30.01,10.0,West,5.8,-,N/A,,Clear,280,2013-02-05 21:53:00
4:53 PM,53.1,24.1,32,30.00,10.0,Calm,Calm,-,N/A,,Clear,0,2013-02-05 22:53:00
5:53 PM,46.9,24.1,41,30.01,10.0,South,5.8,-,N/A,,Clear,170,2013-02-05 23:53:00
6:53 PM,41.0,24.1,51,30.01,10.0,Calm,Calm,-,N/A,,Clear,0,2013-02-06 00:53:00
7:53 PM,39.0,25.0,57,30.02,10.0,East,5.8,-,N/A,,Overcast,100,2013-02-06 01:53:00
8:53 PM,37.9,24.1,57,30.01,10.0,East,6.9,-,N/A,,Mostly Cloudy,100,2013-02-06 02:53:00
9:53 PM,34.0,23.0,64,29.99,10.0,SE,5.8,-,N/A,,Clear,130,2013-02-06 03:53:00
10:53 PM,42.1,24.1,49,29.95,10.0,SSE,9.2,-,N/A,,Clear,150,2013-02-06 04:53:00
11:53 PM,42.1,26.1,53,29.92,10.0,SSE,11.5,-,N/A,,Clear,160,2013-02-06 05:53:00